[[{"header":{"parameterUnit":"m.s-1","parameterCategory":1,"la1":30.2991,"la2":30.254,"lo1":-89.0895,"lo2":-89.0444,"dy":0.0017,"dx":0.0017,"nx":28,"ny":28,"refTime":"2023-04-28T21:00:00:Z","depth":0,"parameterNumber":2,"parameterNumberName":"U-component_of_WINDS"},"data":[0,0,0,0,0,0,0,0,0,0,0,0,0,0,0,0,0,0,0,0,0,0,0,0,0,0,0,0,0,0,0,0,0,0,0,0,0,0,0,0,0,0,0,0,0,0,0,0,0,0,0,0,0,0,0,0,0,0,5.4672,5.4673,0,5.4778,5.4779,5.4781,5.4743,5.4741,5.4738,5.4736,5.4845,5.485,5.4855,0,0,0,0,0,0,0,0,0,0,0,0,0,5.4437,5.4441,5.4671,5.4673,5.4674,5.4778,5.4779,5.4781,5.4744,5.4741,5.4738,5.4735,5.4843,5.4849,5.4856,0,0,0,0,0,0,0,0,0,0,0,0,0,5.4541,5.4443,5.4671,5.4668,5.4669,5.4778,5.4779,5.4781,5.4744,5.4741,5.4737,5.4734,5.4841,5.4849,5.4856,5.4975,0,0,5.488,5.4883,0,0,0,0,0,0,0,0,5.4535,5.4549,5.4667,5.4668,5.467,5.4744,5.4737,5.4846,5.4745,5.4716,5.4736,5.4732,5.4814,5.4824,5.4852,5.498,5.4984,5.4881,5.4885,5.4888,5.4891,0,0,0,0,0,0,0,5.4528,5.4544,5.4714,5.4669,5.467,5.4662,5.4673,5.4757,5.4783,5.4718,5.4715,5.4729,5.4814,5.4844,5.4854,5.4986,5.488,5.4887,5.4892,5.4895,5.5219,5.5223,0,0,0,0,0,0,5.452,5.4539,5.471,5.4717,5.4592,5.4669,5.4681,5.4723,5.4782,5.4788,5.4731,5.4726,5.4833,5.4845,5.4858,5.5002,5.4888,5.4896,5.49,5.5215,5.522,5.5225,0,0,0,0,0,0,5.4515,5.4535,5.4706,5.4627,5.4648,5.4677,5.4725,5.4727,5.4758,5.4793,5.4797,5.4757,5.4831,5.4847,5.4947,5.5005,5.4899,5.4906,5.5211,5.5217,5.5223,5.529,0,0,0,0,0,0,5.4508,5.4534,5.4579,5.4629,5.4653,5.4793,5.4728,5.4732,5.4771,5.4765,5.4818,5.4824,5.4829,5.4935,5.4954,5.5013,5.4912,5.5206,5.5213,5.5221,5.5282,5.5297,5.531,0,0,0,0,0,5.45,5.4592,5.4581,5.4602,5.4709,5.4796,5.481,5.4814,5.4776,5.4821,5.4844,5.4822,5.4996,5.4946,5.4967,5.5029,5.5202,5.5211,5.522,5.5276,5.5294,5.531,0,0,0,0,0,0,5.4548,5.4599,5.4587,5.4698,5.4743,5.4789,5.4847,5.4833,5.489,5.4882,5.4885,5.4898,5.5001,5.5025,5.4969,5.5148,5.5093,5.5107,5.5128,5.5146,5.516,5.5152,5.4918,0,0,0,0,0,5.4571,5.4638,5.4679,5.4773,5.4796,5.4818,5.4856,5.4856,5.4903,5.4921,5.4952,5.4998,5.5063,5.5106,5.5168,5.5286,5.5298,5.5339,5.5353,5.5364,5.5376,5.5443,5.5462,5.5255,5.5254,5.5254,0,0,5.462,5.4657,5.4698,5.4784,5.4818,5.4888,5.4834,5.4909,5.4961,5.4933,5.5029,5.5053,5.5105,5.5216,5.5265,5.5239,5.5437,5.5376,5.5385,5.539,5.5454,5.5474,5.5491,5.5261,5.526,5.5259,0,0,5.4745,5.4779,5.4862,5.4899,5.4953,5.4967,5.4988,5.5037,5.5052,5.5149,5.513,5.5192,5.5304,5.5342,5.5377,5.552,5.5502,5.554,5.5612,5.5677,5.5693,5.5708,5.576,5.5779,5.5552,5.5552,5.5552,0,5.4799,5.4903,5.4907,5.4984,5.5023,5.5002,5.5087,5.5123,5.5194,5.5222,5.5191,5.5333,5.5366,5.5486,5.5521,5.5549,5.5574,5.5534,5.5691,5.5705,5.5719,5.5769,5.5789,5.5556,5.5556,5.5555,5.5555,0,5.4968,5.504,5.5101,5.5171,5.5217,5.5298,5.5315,5.5361,5.5358,5.5376,5.5476,5.5516,5.5587,5.5615,5.5612,5.5736,5.5718,5.5689,5.5634,5.5743,5.579,5.5809,5.5562,5.5561,5.556,5.5558,0,0,5.5124,5.5198,5.522,5.5253,5.5312,5.5369,5.5449,5.5519,5.5559,5.561,5.5679,5.5775,5.575,5.5789,5.579,5.5847,5.596,5.5812,5.5813,5.5839,5.6101,5.6123,5.6145,5.5949,5.5953,5.5956,5.6097,0,5.5255,5.5397,5.5404,5.5533,5.5601,5.5583,5.5654,5.5699,5.5718,5.5779,5.5801,5.587,5.583,5.5854,5.591,5.5935,5.6013,5.5925,5.6014,5.6017,5.6002,5.6169,5.6192,5.6323,5.6115,5.6119,5.6121,0,5.5426,5.5483,5.5619,5.5672,5.57,5.5764,5.5829,5.5887,5.5939,5.5949,5.5994,5.5988,5.6073,5.6015,5.6132,5.6072,5.6109,5.6127,5.6132,5.6141,5.6076,5.6183,5.6365,5.6385,5.615,5.6147,5.6145,0,5.5528,5.5639,5.5736,5.5764,5.5827,5.5872,5.59,5.5948,5.599,5.6048,5.6076,5.6143,5.6179,5.6231,5.6244,5.6201,5.6362,5.6305,5.6374,5.6374,5.6408,5.6406,5.6599,5.6432,5.6431,5.6431,5.6431,0,5.5673,5.5758,5.5783,5.5842,5.5937,5.5945,5.6039,5.6064,5.6107,5.6172,5.6161,5.6222,5.6235,5.6299,5.631,5.6406,5.6422,5.6434,5.6436,5.6435,5.6434,5.646,5.6451,5.6436,5.6435,5.6434,5.6433,0,5.5803,5.5823,5.5927,5.5979,5.5994,5.6062,5.6106,5.6164,5.6183,5.6266,5.6285,5.6315,5.6391,5.6409,5.6498,5.6506,5.662,5.6613,5.6603,5.6603,5.6671,5.6665,5.6888,5.6918,5.673,5.6732,5.6734,0,5.5895,5.596,5.6019,5.6062,5.6093,5.6161,5.6205,5.6216,5.6262,5.6327,5.6377,5.6452,5.6511,5.6633,5.6663,5.6732,5.6727,5.6801,5.6737,5.6736,5.673,5.6726,5.6733,5.6813,5.6815,5.6816,5.6818,0,5.6056,5.6063,5.6126,5.6195,5.6247,5.6301,5.6352,5.6388,5.6406,5.6459,5.6536,5.6583,5.6675,5.675,5.682,5.6849,5.6838,5.6838,5.6857,5.6858,5.685,5.6856,5.6637,5.6832,5.6831,5.683,5.6829,5.6828,5.617,5.6228,5.6279,5.6351,5.6391,5.644,5.6497,5.6524,5.6589,5.6665,5.6668,5.6753,5.6805,5.6898,5.6932,5.6999,5.6976,5.7005,5.7012,5.7019,5.7026,5.6839,5.7012,5.7011,5.7011,5.701,5.701,0,5.6332,5.6365,5.6431,5.6504,5.656,5.6545,5.6601,5.665,5.6725,5.6774,5.6834,5.6924,5.6997,5.7033,5.7106,5.7153,5.7149,5.7171,5.7168,5.7176,5.7041,5.7017,5.7173,5.7173,5.7173,5.7173,5.7173,5.7173,5.6423,5.652,5.6534,5.6652,5.6684,5.6767,5.6801,5.6847,5.6886,5.6987,5.7048,5.7072,5.7117,5.7193,5.726,5.7269,5.7296,5.7322,5.7328,5.7202,5.7185,5.7169,5.7147,5.7327,5.7328,5.7457,5.7459,5.746]},{"header":{"parameterUnit":"m.s-1","parameterCategory":1,"la1":30.2991,"la2":30.254,"lo1":-89.0895,"lo2":-89.0444,"dy":0.0017,"dx":0.0017,"nx":28,"ny":28,"refTime":"2023-04-28T21:00:00:Z","depth":0,"parameterNumber":3,"parameterNumberName":"V-component_of_WINDS"},"data":[0,0,0,0,0,0,0,0,0,0,0,0,0,0,0,0,0,0,0,0,0,0,0,0,0,0,0,0,0,0,0,0,0,0,0,0,0,0,0,0,0,0,0,0,0,0,0,0,0,0,0,0,0,0,0,0,0,0,-2.7695,-2.7696,0,-2.7759,-2.776,-2.7761,-2.7756,-2.7755,-2.7754,-2.7753,-2.7816,-2.7819,-2.7821,0,0,0,0,0,0,0,0,0,0,0,0,0,-2.7568,-2.757,-2.7695,-2.7696,-2.7697,-2.7759,-2.776,-2.7761,-2.7756,-2.7755,-2.7754,-2.7753,-2.7816,-2.7819,-2.7822,0,0,0,0,0,0,0,0,0,0,0,0,0,-2.7626,-2.7571,-2.7695,-2.7702,-2.7703,-2.7759,-2.776,-2.7761,-2.7756,-2.7755,-2.7753,-2.7752,-2.7815,-2.7818,-2.7822,-2.7874,0,0,-2.7834,-2.7835,0,0,0,0,0,0,0,0,-2.7623,-2.7631,-2.77,-2.7702,-2.7703,-2.7748,-2.7738,-2.7799,-2.7757,-2.7736,-2.7753,-2.7751,-2.7795,-2.78,-2.7815,-2.7877,-2.788,-2.7834,-2.7837,-2.7838,-2.7839,0,0,0,0,0,0,0,-2.7619,-2.7628,-2.772,-2.7701,-2.7703,-2.7702,-2.7708,-2.775,-2.7772,-2.7738,-2.7738,-2.7745,-2.7795,-2.7811,-2.7817,-2.7881,-2.7834,-2.7837,-2.784,-2.7841,-2.7991,-2.7992,0,0,0,0,0,0,-2.7614,-2.7625,-2.7718,-2.7722,-2.7659,-2.7705,-2.7713,-2.7735,-2.7772,-2.7776,-2.7746,-2.7745,-2.7806,-2.7812,-2.7819,-2.7884,-2.7838,-2.7842,-2.7844,-2.7989,-2.7991,-2.7993,0,0,0,0,0,0,-2.7611,-2.7622,-2.7716,-2.7674,-2.7686,-2.7709,-2.7734,-2.7737,-2.7753,-2.7779,-2.7782,-2.7759,-2.7805,-2.7813,-2.7861,-2.7886,-2.7843,-2.7847,-2.7987,-2.799,-2.7992,-2.8013,0,0,0,0,0,0,-2.7607,-2.7621,-2.7641,-2.7674,-2.7688,-2.7757,-2.7735,-2.7739,-2.776,-2.7759,-2.7791,-2.7795,-2.7804,-2.7855,-2.7865,-2.789,-2.785,-2.7985,-2.7988,-2.7991,-2.801,-2.8016,-2.8021,0,0,0,0,0,-2.7603,-2.7644,-2.7642,-2.7654,-2.7714,-2.7759,-2.7767,-2.7776,-2.7762,-2.7783,-2.7799,-2.7794,-2.7881,-2.786,-2.7871,-2.7898,-2.7984,-2.7988,-2.7991,-2.8008,-2.8015,-2.8021,0,0,0,0,0,0,-2.7612,-2.7648,-2.7647,-2.77,-2.7727,-2.7758,-2.7784,-2.7783,-2.7814,-2.7811,-2.7821,-2.7829,-2.7877,-2.7892,-2.7868,-2.7951,-2.7931,-2.7937,-2.794,-2.7947,-2.7952,-2.7947,-2.7853,0,0,0,0,0,-2.7621,-2.7655,-2.7684,-2.7728,-2.7741,-2.7761,-2.7781,-2.7786,-2.7814,-2.7825,-2.7844,-2.7871,-2.7905,-2.7926,-2.7958,-2.8012,-2.802,-2.8036,-2.8041,-2.8046,-2.8051,-2.8082,-2.809,-2.8005,-2.8005,-2.8005,0,0,-2.7638,-2.7662,-2.7682,-2.7731,-2.7752,-2.7787,-2.777,-2.7807,-2.7834,-2.783,-2.7877,-2.7893,-2.7923,-2.7975,-2.7998,-2.7988,-2.8076,-2.805,-2.8054,-2.8057,-2.8087,-2.8095,-2.8102,-2.8008,-2.8007,-2.8007,0,0,-2.7688,-2.7709,-2.7749,-2.7771,-2.7803,-2.7816,-2.7826,-2.7858,-2.7868,-2.7916,-2.7914,-2.7945,-2.8002,-2.8025,-2.8043,-2.8103,-2.81,-2.8113,-2.8141,-2.8171,-2.8178,-2.8184,-2.8206,-2.8214,-2.8118,-2.8118,-2.8118,0,-2.7705,-2.7758,-2.7769,-2.7807,-2.7829,-2.7828,-2.7869,-2.7889,-2.7931,-2.7946,-2.7934,-2.8007,-2.8027,-2.8085,-2.81,-2.8115,-2.8126,-2.811,-2.8176,-2.8182,-2.8188,-2.821,-2.8218,-2.812,-2.812,-2.812,-2.8119,0,-2.7778,-2.7815,-2.7843,-2.7885,-2.7909,-2.7948,-2.7965,-2.7989,-2.7992,-2.8006,-2.8055,-2.808,-2.8117,-2.8131,-2.8135,-2.819,-2.8183,-2.8174,-2.8153,-2.8197,-2.8218,-2.8226,-2.8122,-2.8121,-2.8121,-2.8121,0,0,-2.7835,-2.7883,-2.7893,-2.7913,-2.795,-2.7978,-2.8018,-2.8056,-2.8076,-2.8105,-2.8139,-2.8188,-2.818,-2.8201,-2.8207,-2.8234,-2.8281,-2.8222,-2.8222,-2.8233,-2.8345,-2.8352,-2.8362,-2.8279,-2.8281,-2.8282,-2.8343,0,-2.789,-2.796,-2.7972,-2.8034,-2.8069,-2.807,-2.8104,-2.813,-2.8145,-2.8176,-2.8191,-2.8227,-2.8213,-2.8227,-2.8253,-2.827,-2.8304,-2.8266,-2.8311,-2.8313,-2.8304,-2.8372,-2.838,-2.8435,-2.8351,-2.8352,-2.8353,0,-2.7962,-2.7995,-2.8061,-2.8094,-2.8109,-2.814,-2.8177,-2.8207,-2.8237,-2.8245,-2.827,-2.8273,-2.8314,-2.8292,-2.8349,-2.8323,-2.8342,-2.8354,-2.8356,-2.8361,-2.8336,-2.838,-2.8453,-2.8462,-2.8365,-2.8364,-2.8364,0,-2.7999,-2.8058,-2.8106,-2.8122,-2.8162,-2.8184,-2.8202,-2.8231,-2.8253,-2.8285,-2.83,-2.8335,-2.8355,-2.8383,-2.8396,-2.8378,-2.8452,-2.8431,-2.8461,-2.8461,-2.8477,-2.8476,-2.8556,-2.8488,-2.8488,-2.8488,-2.8488,0,-2.8059,-2.8099,-2.8123,-2.8152,-2.8198,-2.8211,-2.8256,-2.8272,-2.8298,-2.8331,-2.8333,-2.8364,-2.8379,-2.8412,-2.8422,-2.8468,-2.8477,-2.8485,-2.8487,-2.8485,-2.8485,-2.8499,-2.8495,-2.849,-2.849,-2.8489,-2.8489,0,-2.8107,-2.8125,-2.8177,-2.8211,-2.8221,-2.8253,-2.8282,-2.8311,-2.8325,-2.8367,-2.8377,-2.84,-2.8439,-2.8454,-2.8501,-2.8508,-2.8562,-2.8561,-2.8553,-2.8553,-2.8583,-2.8581,-2.8675,-2.8689,-2.8612,-2.8612,-2.8613,0,-2.8145,-2.8176,-2.8214,-2.8237,-2.8256,-2.8292,-2.8315,-2.8329,-2.8353,-2.8391,-2.8415,-2.8454,-2.8486,-2.8549,-2.8569,-2.8606,-2.8606,-2.8637,-2.8611,-2.8609,-2.8608,-2.8606,-2.861,-2.8641,-2.8642,-2.8643,-2.8643,0,-2.821,-2.8218,-2.8252,-2.829,-2.8318,-2.8348,-2.8377,-2.8396,-2.8414,-2.8441,-2.8482,-2.8507,-2.8556,-2.8595,-2.8633,-2.8651,-2.8651,-2.8651,-2.866,-2.8659,-2.8653,-2.8658,-2.8566,-2.8649,-2.8648,-2.8648,-2.8648,-2.8647,-2.8255,-2.8284,-2.8315,-2.8354,-2.8378,-2.8405,-2.8434,-2.8453,-2.8487,-2.8529,-2.8535,-2.8579,-2.8609,-2.866,-2.868,-2.8714,-2.8706,-2.8719,-2.8722,-2.8726,-2.8728,-2.8647,-2.8721,-2.8721,-2.8721,-2.872,-2.872,0,-2.8321,-2.8342,-2.8377,-2.8419,-2.845,-2.8447,-2.848,-2.8506,-2.8544,-2.8573,-2.8605,-2.8652,-2.8691,-2.8715,-2.8753,-2.8776,-2.8777,-2.8786,-2.8785,-2.8789,-2.8733,-2.8721,-2.8785,-2.8785,-2.8785,-2.8785,-2.8785,-2.8785,-2.836,-2.8408,-2.842,-2.8481,-2.8501,-2.8545,-2.8564,-2.859,-2.8613,-2.8666,-2.8698,-2.8714,-2.8741,-2.8782,-2.8817,-2.8823,-2.8837,-2.8847,-2.8853,-2.88,-2.8793,-2.8787,-2.8776,-2.885,-2.885,-2.8907,-2.8907,-2.8907]}]]